| time (UTC) | temp C | wind direction | speed KPH | gust KPH | rain 1hr cm | rain 24hr cm | rain mn cm | humidity % | barometer mb |
| 20260506201551 | 10 | 81 | 4.8 | 6.4 | 0.00 | 0.05 | 0.05 | 91 | 1008.9 |
| 20260506201044 | 10 | 52 | 3.2 | 9.7 | 0.00 | 0.05 | 0.05 | 91 | 1008.8 |
| 20260506200545 | 10 | 74 | 6.4 | 14.5 | 0.00 | 0.05 | 0.05 | 91 | 1008.7 |
| 20260506200051 | 10 | 67 | 6.4 | 14.5 | 0.00 | 0.05 | 0.05 | 91 | 1008.7 |
| 20260506195757 | 10 | 46 | 9.7 | 17.7 | 0.00 | 0.05 | 0.05 | 91 | 1008.6 |
| 20260506195037 | 10 | 59 | 11.3 | 17.7 | 0.00 | 0.05 | 0.05 | 90 | 1008.6 |
| 20260506194758 | 10 | 67 | 9.7 | 17.7 | 0.00 | 0.05 | 0.05 | 90 | 1008.5 |
| 20260506194038 | 10 | 60 | 11.3 | 17.7 | 0.00 | 0.05 | 0.05 | 90 | 1008.5 |
| 20260506193758 | 10 | 70 | 11.3 | 16.1 | 0.00 | 0.05 | 0.05 | 89 | 1008.3 |
| 20260506193035 | 10 | 61 | 6.4 | 9.7 | 0.00 | 0.05 | 0.05 | 89 | 1008.3 |
| 20260506192537 | 10 | 53 | 3.2 | 11.3 | 0.00 | 0.05 | 0.05 | 88 | 1008.3 |
| 20260506192305 | 11 | 95 | 9.7 | 11.3 | 0.00 | 0.05 | 0.05 | 88 | 1008.3 |
| 20260506191532 | 11 | 98 | 4.8 | 9.7 | 0.00 | 0.05 | 0.05 | 88 | 1008.2 |
| 20260506191032 | 11 | 73 | 6.4 | 9.7 | 0.00 | 0.05 | 0.05 | 87 | 1008.1 |
| 20260506190750 | 11 | 66 | 4.8 | 8.0 | 0.00 | 0.05 | 0.05 | 87 | 1008.1 |
| 20260506190059 | 11 | 60 | 0.0 | 3.2 | 0.00 | 0.05 | 0.05 | 87 | 1008.1 |
| 20260506185528 | 11 | 60 | 0.0 | 3.2 | 0.00 | 0.05 | 0.05 | 87 | 1008.2 |
| 20260506185244 | 11 | 60 | 0.0 | 4.8 | 0.00 | 0.05 | 0.05 | 87 | 1008.1 |
| 20260506184811 | 11 | 60 | 1.6 | 6.4 | 0.00 | 0.05 | 0.05 | 87 | 1007.9 |
| 20260506184028 | 11 | 77 | 3.2 | 6.4 | 0.00 | 0.05 | 0.05 | 87 | 1008.0 |
| 20260506183527 | 11 | 75 | 3.2 | 6.4 | 0.00 | 0.05 | 0.05 | 87 | 1008.0 |
| 20260506183105 | 11 | 75 | 1.6 | 4.8 | 0.00 | 0.05 | 0.05 | 86 | 1008.0 |
| 20260506182528 | 11 | 75 | 1.6 | 6.4 | 0.00 | 0.05 | 0.05 | 86 | 1007.9 |
| 20260506182249 | 11 | 75 | 1.6 | 6.4 | 0.00 | 0.05 | 0.05 | 86 | 1007.9 |
| 20260506181530 | 12 | 75 | 3.2 | 4.8 | 0.00 | 0.05 | 0.05 | 86 | 1007.8 |
| 20260506181027 | 12 | 75 | 1.6 | 6.4 | 0.00 | 0.05 | 0.05 | 86 | 1007.6 |
| 20260506180527 | 12 | 75 | 4.8 | 6.4 | 0.00 | 0.05 | 0.05 | 86 | 1007.5 |
| 20260506180055 | 12 | 75 | 3.2 | 6.4 | 0.00 | 0.05 | 0.05 | 86 | 1007.5 |
| 20260506175527 | 12 | 75 | 3.2 | 9.7 | 0.00 | 0.05 | 0.05 | 86 | 1007.4 |
| 20260506175250 | 12 | 83 | 4.8 | 11.3 | 0.00 | 0.05 | 0.05 | 86 | 1007.3 |
| 20260506174758 | 12 | 84 | 8.0 | 11.3 | 0.00 | 0.05 | 0.05 | 86 | 1007.3 |
| 20260506174026 | 12 | 98 | 6.4 | 16.1 | 0.00 | 0.05 | 0.05 | 85 | 1007.4 |
| 20260506173804 | 12 | 98 | 8.0 | 16.1 | 0.00 | 0.05 | 0.05 | 85 | 1007.4 |
| 20260506173028 | 12 | 84 | 11.3 | 17.7 | 0.00 | 0.05 | 0.05 | 85 | 1007.2 |
| 20260506172525 | 12 | 85 | 11.3 | 19.3 | 0.00 | 0.05 | 0.05 | 85 | 1007.2 |
| 20260506172025 | 12 | 108 | 11.3 | 19.3 | 0.00 | 0.05 | 0.05 | 85 | 1007.2 |
| 20260506171526 | 12 | 81 | 12.9 | 22.5 | 0.00 | 0.05 | 0.05 | 85 | 1007.2 |
| 20260506171025 | 12 | 75 | 12.9 | 22.5 | 0.00 | 0.05 | 0.05 | 84 | 1007.2 |
| 20260506170525 | 12 | 84 | 14.5 | 20.9 | 0.00 | 0.05 | 0.05 | 84 | 1007.2 |
| 20260506170049 | 12 | 57 | 11.3 | 19.3 | 0.00 | 0.05 | 0.05 | 84 | 1007.1 |
| 20260506165525 | 12 | 84 | 11.3 | 17.7 | 0.00 | 0.05 | 0.05 | 84 | 1007.0 |
| 20260506165025 | 12 | 68 | 11.3 | 20.9 | 0.00 | 0.05 | 0.05 | 84 | 1007.0 |
| 20260506164528 | 12 | 87 | 11.3 | 20.9 | 0.00 | 0.05 | 0.05 | 83 | 1006.8 |
| 20260506164024 | 13 | 92 | 14.5 | 20.9 | 0.00 | 0.05 | 0.05 | 85 | 1006.9 |
| 20260506163745 | 12 | 84 | 11.3 | 20.9 | 0.00 | 0.05 | 0.05 | 84 | 1006.9 |
| 20260506163025 | 12 | 119 | 12.9 | 20.9 | 0.00 | 0.05 | 0.05 | 84 | 1007.1 |
| 20260506162526 | 13 | 60 | 9.7 | 22.5 | 0.00 | 0.05 | 0.05 | 83 | 1007.0 |
| 20260506162024 | 13 | 73 | 16.1 | 22.5 | 0.00 | 0.05 | 0.05 | 83 | 1007.1 |
| 20260506161744 | 13 | 87 | 14.5 | 22.5 | 0.00 | 0.05 | 0.05 | 81 | 1007.2 |
| 20260506161028 | 13 | 98 | 16.1 | 22.5 | 0.00 | 0.05 | 0.05 | 81 | 1007.2 |
| 20260506160521 | 13 | 75 | 14.5 | 22.5 | 0.00 | 0.05 | 0.05 | 79 | 1007.2 |
| 20260506160048 | 13 | 80 | 11.3 | 22.5 | 0.00 | 0.05 | 0.05 | 79 | 1007.2 |
| 20260506155750 | 13 | 107 | 9.7 | 14.5 | 0.00 | 0.05 | 0.05 | 76 | 1007.2 |
| 20260506155024 | 13 | 310 | 3.2 | 8.0 | 0.00 | 0.05 | 0.05 | 75 | 1007.1 |
| 20260506154747 | 13 | 236 | 6.4 | 9.7 | 0.00 | 0.05 | 0.05 | 75 | 1007.1 |
| 20260506154249 | 13 | 279 | 4.8 | 14.5 | 0.00 | 0.08 | 0.05 | 75 | 1007.0 |
| 20260506153528 | 13 | 300 | 6.4 | 14.5 | 0.00 | 0.08 | 0.05 | 76 | 1007.0 |
| 20260506153023 | 13 | 310 | 4.8 | 9.7 | 0.00 | 0.08 | 0.05 | 78 | 1007.0 |
| 20260506152756 | 13 | 310 | 3.2 | 8.0 | 0.00 | 0.08 | 0.05 | 80 | 1007.0 |
| 20260506152024 | 13 | 290 | 0.0 | 8.0 | 0.00 | 0.08 | 0.05 | 79 | 1007.0 |
| 20260506151521 | 13 | 310 | 4.8 | 9.7 | 0.00 | 0.08 | 0.05 | 77 | 1007.0 |
| 20260506151027 | 13 | 347 | 8.0 | 11.3 | 0.00 | 0.08 | 0.05 | 79 | 1006.9 |
| 20260506150529 | 13 | 335 | 8.0 | 11.3 | 0.00 | 0.08 | 0.05 | 78 | 1006.9 |
| 20260506150051 | 13 | 310 | 6.4 | 9.7 | 0.00 | 0.08 | 0.05 | 80 | 1006.9 |
| 20260506145741 | 13 | 310 | 4.8 | 14.5 | 0.00 | 0.08 | 0.05 | 77 | 1007.0 |
| 20260506145025 | 13 | 298 | 6.4 | 14.5 | 0.00 | 0.08 | 0.05 | 81 | 1007.0 |
| 20260506144525 | 13 | 307 | 6.4 | 14.5 | 0.00 | 0.08 | 0.05 | 82 | 1007.0 |
| 20260506144024 | 13 | 310 | 8.0 | 14.5 | 0.00 | 0.08 | 0.05 | 81 | 1007.0 |
| 20260506143528 | 13 | 335 | 9.7 | 14.5 | 0.00 | 0.08 | 0.05 | 81 | 1007.0 |
| 20260506143023 | 13 | 300 | 9.7 | 14.5 | 0.00 | 0.08 | 0.05 | 82 | 1007.1 |
| 20260506142523 | 13 | 351 | 6.4 | 14.5 | 0.00 | 0.08 | 0.05 | 82 | 1007.1 |
| 20260506142027 | 12 | 288 | 9.7 | 14.5 | 0.00 | 0.08 | 0.05 | 81 | 1007.0 |
| 20260506141523 | 12 | 295 | 8.0 | 14.5 | 0.00 | 0.08 | 0.05 | 82 | 1007.0 |
| 20260506141022 | 12 | 310 | 8.0 | 14.5 | 0.00 | 0.08 | 0.05 | 84 | 1007.0 |
| 20260506140526 | 12 | 347 | 8.0 | 14.5 | 0.00 | 0.08 | 0.05 | 85 | 1006.9 |
| 20260506140104 | 11 | 310 | 8.0 | 14.5 | 0.00 | 0.08 | 0.05 | 84 | 1006.9 |
| 20260506135524 | 11 | 300 | 9.7 | 16.1 | 0.00 | 0.08 | 0.05 | 85 | 1007.0 |
| 20260506135026 | 11 | 290 | 9.7 | 16.1 | 0.00 | 0.08 | 0.05 | 85 | 1007.0 |
| 20260506134524 | 11 | 231 | 6.4 | 14.5 | 0.00 | 0.08 | 0.05 | 85 | 1007.1 |
| 20260506134023 | 11 | 255 | 6.4 | 17.7 | 0.00 | 0.08 | 0.05 | 85 | 1007.1 |
| 20260506133523 | 11 | 307 | 12.9 | 17.7 | 0.00 | 0.08 | 0.05 | 85 | 1007.0 |
| 20260506133022 | 11 | 286 | 8.0 | 16.1 | 0.00 | 0.08 | 0.05 | 86 | 1007.0 |
| 20260506132524 | 11 | 252 | 9.7 | 16.1 | 0.00 | 0.10 | 0.05 | 85 | 1007.0 |
| 20260506132042 | 11 | 297 | 11.3 | 19.3 | 0.00 | 0.10 | 0.05 | 85 | 1007.0 |
| 20260506131526 | 11 | 303 | 11.3 | 19.3 | 0.00 | 0.10 | 0.05 | 85 | 1007.0 |
| 20260506131003 | 11 | 300 | 11.3 | 22.5 | 0.00 | 0.10 | 0.05 | 85 | 1007.0 |
| 20260506130523 | 11 | 310 | 11.3 | 22.5 | 0.00 | 0.10 | 0.05 | 84 | 1006.8 |
| 20260506130323 | 11 | 297 | 11.3 | 22.5 | 0.00 | 0.10 | 0.05 | 85 | 1006.9 |
| 20260506125525 | 11 | 297 | 16.1 | 20.9 | 0.00 | 0.10 | 0.05 | 85 | 1006.8 |
| 20260506125024 | 11 | 301 | 12.9 | 20.9 | 0.00 | 0.10 | 0.05 | 85 | 1006.7 |
| 20260506124747 | 11 | 304 | 16.1 | 20.9 | 0.00 | 0.10 | 0.05 | 86 | 1006.7 |
| 20260506124024 | 11 | 307 | 11.3 | 19.3 | 0.00 | 0.10 | 0.05 | 86 | 1006.7 |
| 20260506123524 | 11 | 307 | 12.9 | 19.3 | 0.00 | 0.10 | 0.05 | 88 | 1006.7 |
| 20260506122957 | 11 | 327 | 6.4 | 17.7 | 0.00 | 0.10 | 0.05 | 88 | 1006.8 |
| 20260506122458 | 11 | 335 | 8.0 | 17.7 | 0.00 | 0.10 | 0.05 | 89 | 1006.7 |
| 20260506121958 | 11 | 307 | 12.9 | 17.7 | 0.00 | 0.10 | 0.05 | 89 | 1006.7 |
| 20260506121457 | 11 | 310 | 9.7 | 19.3 | 0.00 | 0.10 | 0.05 | 90 | 1006.7 |
| 20260506120955 | 11 | 304 | 11.3 | 19.3 | 0.00 | 0.10 | 0.05 | 90 | 1006.6 |
| 20260506120455 | 11 | 310 | 9.7 | 16.1 | 0.00 | 0.10 | 0.05 | 90 | 1006.5 |
| 20260506120248 | 11 | 341 | 4.8 | 14.5 | 0.00 | 0.10 | 0.05 | 90 | 1006.5 |
| 20260506115453 | 11 | 331 | 9.7 | 14.5 | 0.00 | 0.10 | 0.05 | 90 | 1006.4 |
| 20260506114951 | 11 | 310 | 9.7 | 16.1 | 0.00 | 0.10 | 0.05 | 90 | 1006.4 |
| 20260506114451 | 11 | 310 | 11.3 | 17.7 | 0.00 | 0.10 | 0.05 | 90 | 1006.3 |
| 20260506113949 | 11 | 327 | 8.0 | 17.7 | 0.00 | 0.10 | 0.05 | 90 | 1006.3 |
| 20260506113449 | 11 | 310 | 9.7 | 17.7 | 0.00 | 0.10 | 0.05 | 90 | 1006.3 |
| 20260506112948 | 11 | 328 | 11.3 | 19.3 | 0.00 | 0.10 | 0.05 | 90 | 1006.3 |
| 20260506112447 | 11 | 310 | 12.9 | 19.3 | 0.03 | 0.10 | 0.05 | 90 | 1006.3 |
| 20260506111946 | 11 | 301 | 11.3 | 17.7 | 0.03 | 0.10 | 0.05 | 90 | 1006.3 |
| 20260506111445 | 11 | 310 | 9.7 | 17.7 | 0.03 | 0.10 | 0.05 | 91 | 1006.3 |
| 20260506110946 | 11 | 310 | 9.7 | 17.7 | 0.03 | 0.10 | 0.05 | 91 | 1006.2 |
| 20260506110445 | 11 | 310 | 12.9 | 17.7 | 0.03 | 0.10 | 0.05 | 91 | 1006.1 |
| 20260506105944 | 11 | 301 | 9.7 | 16.1 | 0.03 | 0.08 | 0.05 | 92 | 1006.2 |
| 20260506105443 | 11 | 293 | 8.0 | 14.5 | 0.03 | 0.08 | 0.05 | 92 | 1006.1 |
| 20260506104442 | 11 | 333 | 6.4 | 14.5 | 0.03 | 0.08 | 0.05 | 93 | 1006.1 |
| 20260506104213 | 11 | 310 | 9.7 | 14.5 | 0.03 | 0.08 | 0.05 | 93 | 1005.9 |
| 20260506103440 | 11 | 310 | 6.4 | 9.7 | 0.03 | 0.08 | 0.05 | 92 | 1005.9 |
| 20260506102440 | 11 | 52 | 3.2 | 4.8 | 0.00 | 0.08 | 0.03 | 92 | 1006.1 |
| 20260506101938 | 11 | 50 | 1.6 | 4.8 | 0.00 | 0.08 | 0.03 | 92 | 1006.1 |
| 20260506101438 | 11 | 54 | 1.6 | 4.8 | 0.00 | 0.08 | 0.03 | 92 | 1006.1 |
| 20260506100939 | 11 | 67 | 1.6 | 4.8 | 0.00 | 0.08 | 0.03 | 91 | 1006.1 |
| 20260506100441 | 11 | 211 | 1.6 | 4.8 | 0.00 | 0.08 | 0.03 | 91 | 1005.9 |
| 20260506095938 | 11 | 211 | 0.0 | 4.8 | 0.00 | 0.08 | 0.03 | 90 | 1005.9 |
| 20260506095439 | 11 | 211 | 1.6 | 8.0 | 0.00 | 0.08 | 0.03 | 91 | 1005.7 |
| 20260506094939 | 11 | 193 | 6.4 | 8.0 | 0.00 | 0.08 | 0.03 | 91 | 1005.7 |
| 20260506094433 | 11 | 184 | 4.8 | 6.4 | 0.00 | 0.08 | 0.03 | 91 | 1005.6 |
| 20260506094203 | 11 | 94 | 0.0 | 3.2 | 0.00 | 0.08 | 0.03 | 92 | 1005.4 |
| 20260506093432 | 11 | 94 | 1.6 | 3.2 | 0.00 | 0.08 | 0.03 | 92 | 1005.2 |
| 20260506092931 | 11 | 94 | 0.0 | 3.2 | 0.00 | 0.08 | 0.03 | 93 | 1005.1 |
| 20260506092431 | 11 | 94 | 3.2 | 3.2 | 0.00 | 0.08 | 0.03 | 93 | 1005.0 |
| 20260506091933 | 11 | 94 | 0.0 | 3.2 | 0.00 | 0.08 | 0.03 | 93 | 1005.0 |
| 20260506091431 | 11 | 94 | 0.0 | 3.2 | 0.00 | 0.08 | 0.03 | 93 | 1005.1 |
| 20260506090931 | 11 | 94 | 0.0 | 1.6 | 0.00 | 0.08 | 0.03 | 93 | 1005.1 |
| 20260506090431 | 11 | 94 | 0.0 | 4.8 | 0.00 | 0.08 | 0.03 | 93 | 1005.0 |
| 20260506085945 | 11 | 94 | 0.0 | 4.8 | 0.00 | 0.08 | 0.03 | 94 | 1005.0 |
| 20260506085701 | 11 | 94 | 3.2 | 8.0 | 0.00 | 0.08 | 0.03 | 94 | 1005.0 |
| 20260506084931 | 11 | 94 | 3.2 | 8.0 | 0.00 | 0.08 | 0.03 | 93 | 1005.0 |
| 20260506084431 | 11 | 115 | 0.0 | 6.4 | 0.00 | 0.08 | 0.03 | 94 | 1004.8 |
| 20260506083932 | 11 | 49 | 4.8 | 6.4 | 0.00 | 0.08 | 0.03 | 94 | 1004.8 |
| 20260506083431 | 10 | 49 | 3.2 | 4.8 | 0.00 | 0.08 | 0.03 | 94 | 1004.8 |
| 20260506082931 | 10 | 64 | 3.2 | 4.8 | 0.00 | 0.08 | 0.03 | 94 | 1004.9 |
| 20260506082702 | 10 | 64 | 3.2 | 4.8 | 0.00 | 0.08 | 0.03 | 94 | 1004.8 |
| 20260506081931 | 10 | 64 | 0.0 | 3.2 | 0.00 | 0.08 | 0.03 | 94 | 1004.8 |
| 20260506081431 | 10 | 64 | 0.0 | 3.2 | 0.00 | 0.08 | 0.03 | 94 | 1004.7 |
| 20260506080931 | 10 | 64 | 0.0 | 3.2 | 0.00 | 0.08 | 0.03 | 94 | 1004.6 |
| 20260506080431 | 10 | 64 | 1.6 | 3.2 | 0.00 | 0.08 | 0.03 | 94 | 1004.6 |
| 20260506073431 | 10 | 136 | 1.6 | 4.8 | 0.00 | 0.08 | 0.03 | 94 | 1004.8 |
| 20260506072931 | 10 | 193 | 0.0 | 3.2 | 0.00 | 0.08 | 0.03 | 94 | 1004.7 |
| 20260506072430 | 10 | 193 | 0.0 | 4.8 | 0.00 | 0.08 | 0.03 | 94 | 1004.7 |
| 20260506071931 | 10 | 193 | 3.2 | 4.8 | 0.00 | 0.08 | 0.03 | 94 | 1004.6 |
| 20260506071704 | 10 | 133 | 0.0 | 4.8 | 0.00 | 0.08 | 0.03 | 94 | 1004.7 |
| 20260506071207 | 10 | 133 | 0.0 | 4.8 | 0.00 | 0.08 | 0.03 | 95 | 1004.6 |
| 20260506070430 | 10 | 133 | 3.2 | 6.4 | 0.00 | 0.08 | 0.03 | 94 | 1004.6 |
| 20260506062431 | 9 | 286 | 1.6 | 4.8 | 0.00 | 0.08 | 0.03 | 95 | 1004.7 |
| 20260506061929 | 8 | 286 | 0.0 | 4.8 | 0.00 | 0.08 | 0.03 | 95 | 1004.9 |
| 20260506061428 | 8 | 246 | 1.6 | 4.8 | 0.00 | 0.08 | 0.03 | 95 | 1004.9 |
| 20260506060929 | 8 | 242 | 3.2 | 4.8 | 0.00 | 0.08 | 0.03 | 95 | 1004.9 |
| 20260506060427 | 8 | 178 | 0.0 | 0.0 | 0.00 | 0.08 | 0.03 | 95 | 1004.9 |
| 20260506060217 | 8 | 178 | 0.0 | 0.0 | 0.00 | 0.08 | 0.03 | 95 | 1004.9 |
| 20260506050419 | 8 | 178 | 3.2 | 6.4 | 0.00 | 0.10 | 0.03 | 94 | 1004.7 |
| 20260506050214 | 8 | 178 | 4.8 | 6.4 | 0.00 | 0.10 | 0.03 | 94 | 1004.8 |
| 20260506044919 | 8 | 286 | 0.0 | 3.2 | 0.00 | 0.10 | 0.03 | 94 | 1004.7 |
| 20260506044419 | 8 | 286 | 1.6 | 3.2 | 0.00 | 0.10 | 0.03 | 94 | 1004.7 |
| 20260506043919 | 8 | 160 | 0.0 | 0.0 | 0.00 | 0.10 | 0.03 | 94 | 1004.8 |
| 20260506043651 | 8 | 160 | 0.0 | 0.0 | 0.00 | 0.10 | 0.03 | 94 | 1004.9 |
| 20260506042916 | 8 | 160 | 0.0 | 0.0 | 0.00 | 0.10 | 0.03 | 94 | 1004.7 |
| 20260506042645 | 8 | 160 | 0.0 | 0.0 | 0.00 | 0.10 | 0.03 | 94 | 1004.7 |
| 20260506041912 | 8 | 160 | 0.0 | 0.0 | 0.00 | 0.10 | 0.03 | 94 | 1004.6 |
| 20260506041411 | 8 | 160 | 0.0 | 3.2 | 0.00 | 0.10 | 0.03 | 94 | 1004.6 |
| 20260506040911 | 8 | 160 | 0.0 | 4.8 | 0.00 | 0.10 | 0.03 | 94 | 1004.5 |
| 20260506040411 | 8 | 160 | 1.6 | 6.4 | 0.00 | 0.10 | 0.03 | 94 | 1004.7 |
| 20260506040208 | 8 | 160 | 3.2 | 8.0 | 0.00 | 0.10 | 0.03 | 94 | 1004.7 |
| 20260506035410 | 8 | 139 | 6.4 | 8.0 | 0.00 | 0.10 | 0.03 | 94 | 1004.8 |
| 20260506034909 | 8 | 114 | 8.0 | 8.0 | 0.00 | 0.10 | 0.03 | 94 | 1004.7 |
| 20260506034410 | 8 | 87 | 0.0 | 4.8 | 0.00 | 0.10 | 0.03 | 94 | 1004.7 |
| 20260506034143 | 8 | 87 | 0.0 | 6.4 | 0.00 | 0.10 | 0.03 | 93 | 1004.9 |
| 20260506033408 | 8 | 87 | 1.6 | 6.4 | 0.00 | 0.10 | 0.03 | 93 | 1004.9 |
| 20260506032908 | 8 | 271 | 0.0 | 6.4 | 0.00 | 0.10 | 0.03 | 93 | 1004.9 |
| 20260506032407 | 8 | 271 | 1.6 | 6.4 | 0.00 | 0.10 | 0.03 | 93 | 1004.9 |
| 20260506032143 | 8 | 257 | 3.2 | 6.4 | 0.00 | 0.10 | 0.03 | 93 | 1005.0 |
| 20260506031403 | 8 | 121 | 1.6 | 4.8 | 0.00 | 0.10 | 0.03 | 93 | 1005.0 |
| 20260506030903 | 8 | 164 | 3.2 | 4.8 | 0.00 | 0.10 | 0.03 | 93 | 1005.1 |
| 20260506030402 | 9 | 164 | 0.0 | 6.4 | 0.00 | 0.10 | 0.03 | 93 | 1005.1 |
| 20260506025901 | 9 | 177 | 1.6 | 6.4 | 0.00 | 0.10 | 0.03 | 93 | 1005.2 |
| 20260506025401 | 9 | 157 | 3.2 | 6.4 | 0.00 | 0.10 | 0.03 | 93 | 1005.3 |
| 20260506024902 | 9 | 116 | 3.2 | 8.0 | 0.00 | 0.10 | 0.03 | 93 | 1005.4 |
| 20260506024640 | 9 | 116 | 4.8 | 9.7 | 0.00 | 0.10 | 0.03 | 93 | 1005.4 |
| 20260506023901 | 9 | 95 | 6.4 | 14.5 | 0.00 | 0.10 | 0.03 | 93 | 1005.4 |
| 20260506023402 | 10 | 108 | 8.0 | 20.9 | 0.00 | 0.10 | 0.03 | 93 | 1005.4 |
| 20260506022401 | 10 | 88 | 14.5 | 19.3 | 0.00 | 0.10 | 0.03 | 93 | 1005.5 |
| 20260506021902 | 10 | 57 | 9.7 | 20.9 | 0.00 | 0.10 | 0.03 | 93 | 1005.6 |
| 20260506021416 | 10 | 70 | 11.3 | 20.9 | 0.03 | 0.10 | 0.03 | 93 | 1005.6 |
| 20260506020901 | 10 | 68 | 8.0 | 14.5 | 0.03 | 0.10 | 0.03 | 93 | 1005.9 |
| 20260506020401 | 10 | 107 | 9.7 | 14.5 | 0.03 | 0.10 | 0.03 | 93 | 1006.1 |
| 20260506015900 | 10 | 50 | 6.4 | 14.5 | 0.03 | 0.08 | 0.03 | 93 | 1006.1 |
| 20260506015401 | 10 | 68 | 9.7 | 14.5 | 0.03 | 0.08 | 0.03 | 93 | 1006.2 |
| 20260506014901 | 10 | 49 | 8.0 | 17.7 | 0.03 | 0.08 | 0.03 | 93 | 1006.1 |
| 20260506014634 | 10 | 57 | 9.7 | 24.1 | 0.03 | 0.08 | 0.03 | 93 | 1006.1 |
| 20260506013900 | 10 | 56 | 12.9 | 30.6 | 0.03 | 0.08 | 0.03 | 93 | 1006.0 |
| 20260506013359 | 10 | 67 | 22.5 | 30.6 | 0.03 | 0.08 | 0.03 | 93 | 1006.1 |
| 20260506012859 | 10 | 75 | 20.9 | 25.7 | 0.03 | 0.08 | 0.03 | 93 | 1006.2 |
| 20260506012400 | 10 | 84 | 16.1 | 20.9 | 0.03 | 0.08 | 0.03 | 92 | 1006.2 |
| 20260506012128 | 10 | 63 | 12.9 | 20.9 | 0.03 | 0.08 | 0.03 | 92 | 1006.3 |
| 20260506011358 | 10 | 66 | 11.3 | 20.9 | 0.00 | 0.08 | 0.00 | 92 | 1006.3 |
| 20260506010859 | 10 | 74 | 12.9 | 32.2 | 0.00 | 0.08 | 0.00 | 92 | 1006.2 |
| 20260506010358 | 10 | 43 | 17.7 | 32.2 | 0.00 | 0.08 | 0.00 | 92 | 1006.2 |
| 20260506010200 | 10 | 59 | 20.9 | 29.0 | 0.00 | 0.08 | 0.00 | 92 | 1006.2 |
| 20260506005359 | 10 | 68 | 12.9 | 30.6 | 0.00 | 0.08 | 0.00 | 92 | 1006.3 |
| 20260506004859 | 10 | 53 | 20.9 | 37.0 | 0.00 | 0.08 | 0.00 | 92 | 1006.6 |
| 20260506004358 | 10 | 92 | 20.9 | 37.0 | 0.00 | 0.08 | 0.00 | 92 | 1006.7 |
| 20260506003858 | 10 | 91 | 22.5 | 33.8 | 0.00 | 0.08 | 0.00 | 92 | 1006.7 |
| 20260506003358 | 10 | 91 | 17.7 | 27.4 | 0.00 | 0.08 | 0.00 | 92 | 1006.9 |
| 20260506002858 | 10 | 44 | 16.1 | 27.4 | 0.00 | 0.08 | 0.00 | 92 | 1007.0 |
| 20260506002357 | 10 | 54 | 12.9 | 22.5 | 0.00 | 0.08 | 0.00 | 92 | 1007.1 |
| 20260506001858 | 10 | 28 | 9.7 | 27.4 | 0.00 | 0.08 | 0.00 | 92 | 1007.2 |
| 20260506001357 | 10 | 68 | 16.1 | 27.4 | 0.00 | 0.08 | 0.00 | 92 | 1007.4 |
| 20260506001134 | 10 | 92 | 14.5 | 24.1 | 0.00 | 0.08 | 0.00 | 92 | 1007.4 |
| 20260506000413 | 10 | 75 | 9.7 | 24.1 | 0.00 | 0.08 | 0.00 | 92 | 1007.4 |
| 20260505235858 | 10 | 68 | 9.7 | 16.1 | 0.00 | 0.08 | 0.00 | 92 | 1007.4 |
| 20260505235636 | 10 | 67 | 9.7 | 16.1 | 0.00 | 0.08 | 0.00 | 92 | 1007.6 |
| 20260505234856 | 10 | 64 | 9.7 | 20.9 | 0.00 | 0.08 | 0.00 | 92 | 1007.8 |
| 20260505233856 | 10 | 54 | 17.7 | 32.2 | 0.00 | 0.08 | 0.00 | 92 | 1007.9 |
| 20260505233357 | 10 | 49 | 19.3 | 32.2 | 0.00 | 0.08 | 0.00 | 92 | 1007.9 |
| 20260505232856 | 10 | 33 | 14.5 | 32.2 | 0.00 | 0.08 | 0.00 | 92 | 1007.8 |
| 20260505232356 | 10 | 68 | 16.1 | 25.7 | 0.00 | 0.08 | 0.00 | 92 | 1007.6 |
| 20260505231856 | 10 | 53 | 14.5 | 25.7 | 0.00 | 0.08 | 0.00 | 93 | 1007.6 |
| 20260505231354 | 10 | 36 | 11.3 | 19.3 | 0.00 | 0.08 | 0.00 | 93 | 1007.5 |
| 20260505230855 | 10 | 25 | 11.3 | 29.0 | 0.00 | 0.08 | 0.00 | 93 | 1007.5 |
| 20260505225855 | 11 | 83 | 19.3 | 27.4 | 0.00 | 0.08 | 0.00 | 93 | 1007.9 |
| 20260505225355 | 11 | 43 | 16.1 | 27.4 | 0.00 | 0.08 | 0.00 | 93 | 1008.0 |
| 20260505224855 | 11 | 40 | 12.9 | 19.3 | 0.00 | 0.08 | 0.00 | 94 | 1008.0 |
| 20260505224634 | 11 | 74 | 12.9 | 19.3 | 0.00 | 0.08 | 0.00 | 93 | 1008.2 |
| 20260505223855 | 11 | 67 | 9.7 | 19.3 | 0.00 | 0.08 | 0.00 | 93 | 1008.2 |
| 20260505223354 | 11 | 66 | 11.3 | 22.5 | 0.00 | 0.08 | 0.00 | 93 | 1008.3 |
| 20260505222855 | 11 | 91 | 16.1 | 22.5 | 0.00 | 0.08 | 0.00 | 93 | 1008.2 |
| 20260505222354 | 11 | 64 | 14.5 | 22.5 | 0.00 | 0.08 | 0.00 | 93 | 1008.0 |
| 20260505221854 | 11 | 64 | 8.0 | 17.7 | 0.00 | 0.08 | 0.00 | 93 | 1008.3 |
| 20260505221354 | 11 | 94 | 9.7 | 17.7 | 0.00 | 0.08 | 0.00 | 93 | 1008.2 |
| 20260505220854 | 11 | 83 | 12.9 | 17.7 | 0.00 | 0.08 | 0.00 | 93 | 1008.2 |
| 20260505220354 | 11 | 98 | 9.7 | 16.1 | 0.00 | 0.08 | 0.00 | 93 | 1008.0 |
| 20260505215852 | 11 | 109 | 11.3 | 16.1 | 0.00 | 0.08 | 0.08 | 93 | 1008.0 |
| 20260505215354 | 11 | 99 | 6.4 | 11.3 | 0.00 | 0.08 | 0.08 | 93 | 1007.9 |
| 20260505214854 | 11 | 80 | 8.0 | 11.3 | 0.00 | 0.08 | 0.08 | 92 | 1008.0 |
| 20260505214353 | 11 | 67 | 9.7 | 11.3 | 0.00 | 0.08 | 0.08 | 92 | 1007.9 |
| 20260505213853 | 11 | 81 | 8.0 | 11.3 | 0.00 | 0.08 | 0.08 | 92 | 1007.9 |
| 20260505213353 | 11 | 52 | 3.2 | 8.0 | 0.00 | 0.08 | 0.08 | 92 | 1008.0 |
| 20260505213127 | 11 | 50 | 4.8 | 4.8 | 0.00 | 0.08 | 0.08 | 92 | 1008.1 |
| 20260505212353 | 11 | 60 | 3.2 | 4.8 | 0.00 | 0.08 | 0.08 | 91 | 1008.2 |
| 20260505211852 | 11 | 173 | 1.6 | 8.0 | 0.00 | 0.08 | 0.08 | 91 | 1008.3 |
| 20260505211629 | 11 | 142 | 1.6 | 8.0 | 0.00 | 0.08 | 0.08 | 91 | 1008.3 |
| 20260505210852 | 11 | 94 | 1.6 | 8.0 | 0.00 | 0.08 | 0.08 | 91 | 1008.3 |
| 20260505210352 | 11 | 147 | 6.4 | 11.3 | 0.00 | 0.08 | 0.08 | 91 | 1008.3 |
| 20260505205852 | 11 | 88 | 3.2 | 11.3 | 0.00 | 0.08 | 0.08 | 91 | 1008.3 |
| 20260505205352 | 11 | 359 | 3.2 | 8.0 | 0.00 | 0.08 | 0.08 | 91 | 1008.2 |
| 20260505204852 | 11 | 207 | 3.2 | 9.7 | 0.00 | 0.08 | 0.08 | 91 | 1008.2 |
| 20260505204351 | 11 | 57 | 3.2 | 16.1 | 0.00 | 0.08 | 0.08 | 91 | 1008.3 |
| 20260505203852 | 11 | 98 | 6.4 | 20.9 | 0.00 | 0.08 | 0.08 | 91 | 1008.2 |
| 20260505203623 | 11 | 77 | 8.0 | 20.9 | 0.00 | 0.08 | 0.08 | 91 | 1008.0 |
| 20260505203126 | 11 | 52 | 11.3 | 20.9 | 0.00 | 0.08 | 0.08 | 91 | 1008.0 |
| 20260505202627 | 11 | 53 | 12.9 | 20.9 | 0.00 | 0.08 | 0.08 | 91 | 1008.0 |
| 20260505201851 | 11 | 85 | 14.5 | 20.9 | 0.00 | 0.08 | 0.08 | 91 | 1008.0 |